Time,TemperatureF,DewpointF,PressureIn,WindDirection,WindDirectionDegrees,WindSpeedMPH,WindSpeedGustMPH,Humidity,HourlyPrecipIn,Conditions,Clouds,dailyrainin,SoftwareType,DateUTC
2013-04-06 00:03:00,30.9,27.8,30.09,SSW,212,3.0,5.0,88,0.00,,---,0.00,VWS V14.01,2013-04-06 05:03:00,
2013-04-06 00:13:00,30.7,27.9,30.09,SE,130,1.0,4.0,89,0.00,,---,0.00,VWS V14.01,2013-04-06 05:13:00,
2013-04-06 00:18:00,30.6,27.8,30.09,SSE,150,1.0,6.0,89,0.00,,---,0.00,VWS V14.01,2013-04-06 05:18:00,
2013-04-06 00:23:00,30.6,27.8,30.08,SE,135,2.0,5.0,89,0.00,,---,0.00,VWS V14.01,2013-04-06 05:23:00,
2013-04-06 00:28:00,30.7,27.9,30.09,SSE,162,1.0,7.0,89,0.00,,---,0.00,VWS V14.01,2013-04-06 05:28:00,
2013-04-06 00:33:00,30.7,27.9,30.08,SSE,153,0.0,5.0,89,0.00,,---,0.00,VWS V14.01,2013-04-06 05:33:00,
2013-04-06 00:38:00,30.6,27.8,30.08,SSE,152,0.0,2.0,89,0.00,,---,0.00,VWS V14.01,2013-04-06 05:38:00,
2013-04-06 00:43:00,30.6,28.0,30.08,SE,129,1.0,5.0,90,0.00,,---,0.00,VWS V14.01,2013-04-06 05:43:00,
2013-04-06 00:48:00,30.6,28.0,30.08,East,98,0.0,4.0,90,0.00,,---,0.00,VWS V14.01,2013-04-06 05:48:00,
2013-04-06 00:53:00,30.6,28.0,30.07,East,99,3.0,4.0,90,0.00,,---,0.00,VWS V14.01,2013-04-06 05:53:00,
2013-04-06 01:03:00,30.6,28.3,30.06,ESE,113,5.0,7.0,91,0.00,,---,0.00,VWS V14.01,2013-04-06 06:03:00,
2013-04-06 01:08:00,30.6,28.3,30.06,East,98,2.0,6.0,91,0.00,,---,0.00,VWS V14.01,2013-04-06 06:08:00,
2013-04-06 01:13:00,30.7,28.4,30.06,SSE,158,2.0,7.0,91,0.00,,---,0.00,VWS V14.01,2013-04-06 06:13:00,
2013-04-06 01:23:00,30.7,28.4,30.05,ESE,114,1.0,6.0,91,0.00,,---,0.00,VWS V14.01,2013-04-06 06:23:00,
2013-04-06 01:28:00,30.7,28.7,30.05,SE,130,3.0,6.0,92,0.00,,---,0.00,VWS V14.01,2013-04-06 06:28:00,
2013-04-06 01:38:00,30.8,28.8,30.04,SE,132,5.0,9.0,92,0.00,,---,0.00,VWS V14.01,2013-04-06 06:38:00,
2013-04-06 01:43:00,30.9,28.9,30.03,SE,144,3.0,7.0,92,0.00,,---,0.00,VWS V14.01,2013-04-06 06:43:00,
2013-04-06 01:53:00,30.9,28.9,30.03,SE,136,1.0,8.0,92,0.00,,---,0.00,VWS V14.01,2013-04-06 06:53:00,
2013-04-06 01:58:00,30.9,28.9,30.02,SE,141,2.0,9.0,92,0.00,,---,0.00,VWS V14.01,2013-04-06 06:58:00,
2013-04-06 02:03:00,30.9,28.9,30.02,SE,145,5.0,11.0,92,0.00,,---,0.00,VWS V14.01,2013-04-06 07:03:00,
2013-04-06 02:13:00,30.8,28.8,30.01,SSE,148,5.0,14.0,92,0.00,,---,0.00,VWS V14.01,2013-04-06 07:13:00,
2013-04-06 02:18:00,30.9,28.9,30.01,SSE,168,2.0,10.0,92,0.00,,---,0.00,VWS V14.01,2013-04-06 07:18:00,
2013-04-06 02:28:00,30.9,28.9,30.00,SSE,150,8.0,16.0,92,0.00,,---,0.00,VWS V14.01,2013-04-06 07:28:00,
2013-04-06 02:33:00,30.9,29.1,30.00,South,182,4.0,12.0,93,0.00,,---,0.00,VWS V14.01,2013-04-06 07:33:00,
2013-04-06 02:43:00,31.0,29.2,29.99,ESE,115,12.0,13.0,93,0.00,,---,0.00,VWS V14.01,2013-04-06 07:43:00,
2013-04-06 02:53:00,31.0,29.2,29.98,SSE,150,3.0,16.0,93,0.00,,---,0.00,VWS V14.01,2013-04-06 07:53:00,
2013-04-06 02:58:00,31.0,29.2,29.98,ESE,113,8.0,13.0,93,0.00,,---,0.00,VWS V14.01,2013-04-06 07:58:00,
2013-04-06 03:03:00,31.0,29.2,29.98,SSE,148,8.0,12.0,93,0.00,,---,0.00,VWS V14.01,2013-04-06 08:03:00,
2013-04-06 03:08:00,31.0,29.2,29.97,SE,141,9.0,15.0,93,0.00,,---,0.00,VWS V14.01,2013-04-06 08:08:00,
2013-04-06 03:13:00,31.0,29.2,29.97,South,173,2.0,15.0,93,0.00,,---,0.00,VWS V14.01,2013-04-06 08:13:00,
2013-04-06 03:18:00,31.0,29.2,29.96,SE,137,11.0,18.0,93,0.00,,---,0.00,VWS V14.01,2013-04-06 08:18:00,
2013-04-06 03:23:00,31.0,29.2,29.96,SE,134,5.0,16.0,93,0.00,,---,0.00,VWS V14.01,2013-04-06 08:23:00,
2013-04-06 03:28:00,31.0,29.2,29.96,SE,130,4.0,13.0,93,0.00,,---,0.00,VWS V14.01,2013-04-06 08:28:00,
2013-04-06 03:33:00,31.0,29.2,29.96,SE,140,3.0,13.0,93,0.00,,---,0.00,VWS V14.01,2013-04-06 08:33:00,
2013-04-06 03:38:00,31.1,29.3,29.97,SE,134,5.0,13.0,93,0.00,,---,0.00,VWS V14.01,2013-04-06 08:38:00,
2013-04-06 03:48:00,31.1,29.3,29.95,SE,129,6.0,9.0,93,0.00,,---,0.00,VWS V14.01,2013-04-06 08:48:00,
2013-04-06 03:53:00,31.2,29.4,29.95,ESE,120,5.0,13.0,93,0.00,,---,0.00,VWS V14.01,2013-04-06 08:53:00,
2013-04-06 03:58:00,31.2,29.4,29.94,SE,140,8.0,16.0,93,0.00,,---,0.00,VWS V14.01,2013-04-06 08:58:00,
2013-04-06 04:03:00,31.3,29.5,29.94,South,170,7.0,12.0,93,0.00,,---,0.00,VWS V14.01,2013-04-06 09:03:00,
2013-04-06 04:08:00,31.3,29.5,29.93,East,96,2.0,9.0,93,0.00,,---,0.00,VWS V14.01,2013-04-06 09:08:00,
2013-04-06 04:18:00,31.3,29.5,29.92,ESE,117,9.0,13.0,93,0.00,,---,0.00,VWS V14.01,2013-04-06 09:18:00,
2013-04-06 04:23:00,31.3,29.5,29.91,East,95,6.0,13.0,93,0.00,,---,0.00,VWS V14.01,2013-04-06 09:23:00,
2013-04-06 04:28:00,31.4,29.6,29.91,SE,136,2.0,13.0,93,0.00,,---,0.00,VWS V14.01,2013-04-06 09:28:00,
2013-04-06 04:33:00,31.4,29.6,29.91,SE,126,3.0,10.0,93,0.00,,---,0.00,VWS V14.01,2013-04-06 09:33:00,
2013-04-06 04:43:00,31.5,29.5,29.90,SE,131,3.0,11.0,92,0.00,,---,0.00,VWS V14.01,2013-04-06 09:43:00,
2013-04-06 04:48:00,31.5,29.5,29.90,ESE,102,0.0,11.0,92,0.00,,---,0.00,VWS V14.01,2013-04-06 09:48:00,
2013-04-06 04:53:00,31.6,29.5,29.90,East,84,5.0,18.0,92,0.00,,---,0.00,VWS V14.01,2013-04-06 09:53:00,
2013-04-06 04:58:00,31.6,29.5,29.90,SSE,162,2.0,11.0,92,0.00,,---,0.00,VWS V14.01,2013-04-06 09:58:00,
2013-04-06 05:08:00,31.7,29.4,29.89,ESE,117,6.0,9.0,91,0.00,,---,0.00,VWS V14.01,2013-04-06 10:08:00,
2013-04-06 05:13:00,31.7,29.4,29.89,SE,140,3.0,11.0,91,0.00,,---,0.00,VWS V14.01,2013-04-06 10:13:00,
2013-04-06 05:18:00,31.8,29.5,29.89,ESE,113,4.0,6.0,91,0.00,,---,0.00,VWS V14.01,2013-04-06 10:18:00,
2013-04-06 05:23:00,31.8,29.5,29.89,South,172,3.0,9.0,91,0.00,,---,0.00,VWS V14.01,2013-04-06 10:23:00,
2013-04-06 05:33:00,31.7,29.4,29.89,SE,144,7.0,17.0,91,0.00,,---,0.00,VWS V14.01,2013-04-06 10:33:00,
2013-04-06 05:43:00,31.7,29.4,29.88,SSW,194,4.0,14.0,91,0.00,,---,0.00,VWS V14.01,2013-04-06 10:43:00,
2013-04-06 05:48:00,31.7,29.1,29.87,ENE,63,3.0,11.0,90,0.00,,---,0.00,VWS V14.01,2013-04-06 10:48:00,
2013-04-06 05:58:00,31.7,29.1,29.88,South,173,2.0,13.0,90,0.00,,---,0.00,VWS V14.01,2013-04-06 10:58:00,
2013-04-06 06:03:00,31.8,29.2,29.88,SSE,163,5.0,10.0,90,0.00,,---,0.00,VWS V14.01,2013-04-06 11:03:00,
2013-04-06 06:08:00,31.8,29.2,29.87,SE,146,4.0,11.0,90,0.00,,---,0.00,VWS V14.01,2013-04-06 11:08:00,
2013-04-06 06:13:00,31.7,29.1,29.87,SE,142,3.0,10.0,90,0.00,,---,0.00,VWS V14.01,2013-04-06 11:13:00,
2013-04-06 06:23:00,31.7,29.1,29.87,SSW,194,4.0,17.0,90,0.00,,---,0.00,VWS V14.01,2013-04-06 11:23:00,
2013-04-06 06:28:00,31.8,29.2,29.86,SE,138,2.0,13.0,90,0.00,,---,0.00,VWS V14.01,2013-04-06 11:28:00,
2013-04-06 06:33:00,31.8,28.9,29.86,ESE,114,4.0,16.0,89,0.00,,---,0.00,VWS V14.01,2013-04-06 11:33:00,
2013-04-06 06:43:00,31.9,29.0,29.85,SSE,157,8.0,16.0,89,0.00,,---,0.00,VWS V14.01,2013-04-06 11:43:00,
2013-04-06 06:48:00,31.9,29.0,29.84,SE,137,2.0,18.0,89,0.00,,---,0.00,VWS V14.01,2013-04-06 11:48:00,
2013-04-06 06:53:00,31.9,29.0,29.84,South,175,10.0,14.0,89,0.00,,---,0.00,VWS V14.01,2013-04-06 11:53:00,
2013-04-06 06:58:00,32.0,29.1,29.85,SSW,196,4.0,17.0,89,0.00,,---,0.00,VWS V14.01,2013-04-06 11:58:00,
2013-04-06 07:03:00,32.0,28.9,29.84,South,178,4.0,16.0,88,0.00,,---,0.00,VWS V14.01,2013-04-06 12:03:00,
2013-04-06 07:08:00,32.0,28.9,29.84,East,89,6.0,14.0,88,0.00,,---,0.00,VWS V14.01,2013-04-06 12:08:00,
2013-04-06 07:13:00,32.0,28.9,29.84,South,184,1.0,15.0,88,0.00,,---,0.00,VWS V14.01,2013-04-06 12:13:00,
2013-04-06 07:18:00,32.0,28.9,29.84,East,96,16.0,16.0,88,0.00,,---,0.00,VWS V14.01,2013-04-06 12:18:00,
2013-04-06 07:28:00,32.0,28.9,29.83,SE,129,13.0,19.0,88,0.00,,---,0.00,VWS V14.01,2013-04-06 12:28:00,
2013-04-06 07:38:00,32.0,28.6,29.83,SSE,157,7.0,16.0,87,0.00,,---,0.00,VWS V14.01,2013-04-06 12:38:00,
2013-04-06 07:43:00,32.0,28.6,29.82,SSE,153,8.0,18.0,87,0.00,,---,0.00,VWS V14.01,2013-04-06 12:43:00,
2013-04-06 07:48:00,32.0,28.6,29.82,SSE,162,12.0,15.0,87,0.00,,---,0.00,VWS V14.01,2013-04-06 12:48:00,
2013-04-06 07:53:00,32.0,28.3,29.82,South,169,2.0,18.0,86,0.00,,---,0.00,VWS V14.01,2013-04-06 12:53:00,
2013-04-06 08:03:00,32.1,28.7,29.81,South,178,11.0,14.0,87,0.00,,---,0.00,VWS V14.01,2013-04-06 13:03:00,
2013-04-06 08:13:00,32.1,28.4,29.80,SE,134,5.0,19.0,86,0.00,,---,0.00,VWS V14.01,2013-04-06 13:13:00,
2013-04-06 08:23:00,32.3,28.3,29.80,SSE,155,10.0,17.0,85,0.00,,---,0.00,VWS V14.01,2013-04-06 13:23:00,
2013-04-06 08:33:00,32.4,28.4,29.80,SE,130,10.0,16.0,85,0.00,,---,0.00,VWS V14.01,2013-04-06 13:33:00,
2013-04-06 08:38:00,32.5,28.2,29.80,SE,144,17.0,17.0,84,0.00,,---,0.00,VWS V14.01,2013-04-06 13:38:00,
2013-04-06 08:43:00,32.5,28.2,29.79,South,190,7.0,18.0,84,0.00,,---,0.00,VWS V14.01,2013-04-06 13:43:00,
2013-04-06 08:48:00,32.4,28.4,29.78,South,173,6.0,20.0,85,0.00,,---,0.00,VWS V14.01,2013-04-06 13:48:00,
2013-04-06 08:58:00,32.4,28.4,29.77,SSW,198,11.0,25.0,85,0.00,,---,0.00,VWS V14.01,2013-04-06 13:58:00,
2013-04-06 09:08:00,32.5,28.5,29.77,SSW,202,18.0,20.0,85,0.00,,---,0.00,VWS V14.01,2013-04-06 14:08:00,
2013-04-06 09:18:00,32.5,28.8,29.76,South,178,21.0,25.0,86,0.00,,---,0.00,VWS V14.01,2013-04-06 14:18:00,
2013-04-06 09:23:00,32.5,28.8,29.76,SSE,159,15.0,24.0,86,0.00,,---,0.00,VWS V14.01,2013-04-06 14:23:00,
2013-04-06 09:28:00,32.5,28.8,29.76,South,176,13.0,26.0,86,0.00,,---,0.00,VWS V14.01,2013-04-06 14:28:00,
2013-04-06 09:38:00,32.5,28.8,29.74,SSE,163,11.0,22.0,86,0.00,,---,0.00,VWS V14.01,2013-04-06 14:38:00,
2013-04-06 09:43:00,32.5,28.8,29.74,SE,146,5.0,16.0,86,0.00,,---,0.00,VWS V14.01,2013-04-06 14:43:00,
2013-04-06 09:48:00,32.6,28.9,29.74,SE,145,14.0,19.0,86,0.00,,---,0.00,VWS V14.01,2013-04-06 14:48:00,
2013-04-06 09:58:00,32.6,28.9,29.73,South,186,8.0,19.0,86,0.00,,---,0.00,VWS V14.01,2013-04-06 14:58:00,
2013-04-06 10:03:00,32.6,28.9,29.73,SSW,200,10.0,18.0,86,0.00,,---,0.00,VWS V14.01,2013-04-06 15:03:00,
2013-04-06 10:08:00,32.6,28.9,29.73,South,169,6.0,19.0,86,0.00,,---,0.00,VWS V14.01,2013-04-06 15:08:00,
2013-04-06 10:13:00,32.6,28.9,29.72,SSW,205,14.0,20.0,86,0.00,,---,0.00,VWS V14.01,2013-04-06 15:13:00,
2013-04-06 10:18:00,32.7,29.0,29.72,SSW,198,9.0,20.0,86,0.00,,---,0.00,VWS V14.01,2013-04-06 15:18:00,
2013-04-06 10:23:00,32.7,29.0,29.72,South,172,10.0,17.0,86,0.00,,---,0.00,VWS V14.01,2013-04-06 15:23:00,
2013-04-06 10:28:00,32.8,29.1,29.71,SSE,152,9.0,18.0,86,0.00,,---,0.00,VWS V14.01,2013-04-06 15:28:00,
2013-04-06 10:33:00,32.8,29.1,29.70,South,173,17.0,19.0,86,0.00,,---,0.00,VWS V14.01,2013-04-06 15:33:00,
2013-04-06 10:38:00,33.0,29.0,29.70,SSE,164,10.0,21.0,85,0.00,,---,0.00,VWS V14.01,2013-04-06 15:38:00,
2013-04-06 10:48:00,33.2,29.2,29.70,SE,145,7.0,21.0,85,0.00,,---,0.00,VWS V14.01,2013-04-06 15:48:00,
2013-04-06 10:53:00,33.2,28.9,29.70,SSE,148,9.0,22.0,84,0.00,,---,0.00,VWS V14.01,2013-04-06 15:53:00,
2013-04-06 10:58:00,33.2,29.2,29.70,South,180,20.0,20.0,85,0.00,,---,0.00,VWS V14.01,2013-04-06 15:58:00,
2013-04-06 11:08:00,33.5,29.2,29.70,South,177,9.0,21.0,84,0.01,,---,0.01,VWS V14.01,2013-04-06 16:08:00,
2013-04-06 11:13:00,33.6,29.3,29.69,SSW,207,4.0,16.0,84,0.01,,---,0.01,VWS V14.01,2013-04-06 16:13:00,
2013-04-06 11:18:00,33.8,29.5,29.69,SSE,161,11.0,23.0,84,0.01,,---,0.01,VWS V14.01,2013-04-06 16:18:00,
2013-04-06 11:28:00,34.1,29.5,29.69,SE,143,10.0,24.0,83,0.01,,---,0.01,VWS V14.01,2013-04-06 16:28:00,
2013-04-06 11:38:00,34.4,29.8,29.69,SE,128,4.0,19.0,83,0.01,,---,0.01,VWS V14.01,2013-04-06 16:38:00,
2013-04-06 11:43:00,34.4,29.5,29.69,South,180,6.0,16.0,82,0.01,,---,0.01,VWS V14.01,2013-04-06 16:43:00,
2013-04-06 11:48:00,34.4,29.5,29.69,South,174,5.0,19.0,82,0.01,,---,0.01,VWS V14.01,2013-04-06 16:48:00,
2013-04-06 11:53:00,34.6,29.4,29.69,SE,144,3.0,17.0,81,0.02,,---,0.02,VWS V14.01,2013-04-06 16:53:00,
2013-04-06 11:58:00,34.9,30.0,29.68,SE,136,5.0,13.0,82,0.02,,---,0.02,VWS V14.01,2013-04-06 16:58:00,
2013-04-06 12:03:00,35.0,29.8,29.68,SE,134,4.0,11.0,81,0.02,,---,0.02,VWS V14.01,2013-04-06 17:03:00,
2013-04-06 12:08:00,35.0,29.8,29.68,South,172,3.0,12.0,81,0.02,,---,0.02,VWS V14.01,2013-04-06 17:08:00,
2013-04-06 12:13:00,35.2,30.0,29.67,SSE,161,11.0,14.0,81,0.02,,---,0.03,VWS V14.01,2013-04-06 17:13:00,
2013-04-06 12:18:00,35.2,30.0,29.67,ESE,110,0.0,12.0,81,0.02,,---,0.03,VWS V14.01,2013-04-06 17:18:00,
2013-04-06 12:23:00,35.2,30.3,29.67,West,267,3.0,9.0,82,0.03,,---,0.04,VWS V14.01,2013-04-06 17:23:00,
2013-04-06 12:28:00,35.2,30.6,29.68,NW,306,2.0,3.0,83,0.04,,---,0.05,VWS V14.01,2013-04-06 17:28:00,
2013-04-06 12:33:00,35.1,30.5,29.68,SSE,161,1.0,5.0,83,0.05,,---,0.06,VWS V14.01,2013-04-06 17:33:00,
2013-04-06 12:38:00,35.1,30.8,29.68,SSW,194,9.0,9.0,84,0.06,,---,0.07,VWS V14.01,2013-04-06 17:38:00,
2013-04-06 12:43:00,35.1,30.8,29.68,SSE,165,2.0,9.0,84,0.06,,---,0.07,VWS V14.01,2013-04-06 17:43:00,
2013-04-06 12:53:00,35.2,31.4,29.68,SSE,159,3.0,6.0,86,0.07,,---,0.08,VWS V14.01,2013-04-06 17:53:00,
2013-04-06 12:58:00,35.4,31.6,29.67,SW,218,0.0,4.0,86,0.07,,---,0.09,VWS V14.01,2013-04-06 17:58:00,
2013-04-06 13:03:00,35.7,31.9,29.67,SW,218,0.0,0.0,86,0.08,,---,0.10,VWS V14.01,2013-04-06 18:03:00,
2013-04-06 13:08:00,36.0,32.2,29.67,SW,218,0.0,3.0,86,0.09,,---,0.11,VWS V14.01,2013-04-06 18:08:00,
2013-04-06 13:13:00,36.0,32.2,29.66,ESE,123,0.0,3.0,86,0.09,,---,0.11,VWS V14.01,2013-04-06 18:13:00,
2013-04-06 13:18:00,36.1,32.3,29.66,South,186,0.0,4.0,86,0.09,,---,0.12,VWS V14.01,2013-04-06 18:18:00,
2013-04-06 13:28:00,36.2,32.7,29.65,ESE,123,5.0,5.0,87,0.09,,---,0.13,VWS V14.01,2013-04-06 18:28:00,
2013-04-06 13:38:00,36.1,32.3,29.65,SSE,153,0.0,4.0,86,0.08,,---,0.14,VWS V14.01,2013-04-06 18:38:00,
2013-04-06 13:43:00,36.2,32.4,29.64,ENE,65,0.0,5.0,86,0.07,,---,0.14,VWS V14.01,2013-04-06 18:43:00,
2013-04-06 13:48:00,36.3,32.8,29.64,ESE,111,0.0,5.0,87,0.07,,---,0.14,VWS V14.01,2013-04-06 18:48:00,
2013-04-06 13:53:00,36.4,32.9,29.64,ESE,112,1.0,3.0,87,0.06,,---,0.14,VWS V14.01,2013-04-06 18:53:00,
2013-04-06 14:03:00,36.8,33.3,29.64,ESE,112,0.0,0.0,87,0.06,,---,0.15,VWS V14.01,2013-04-06 19:03:00,
2013-04-06 14:08:00,36.9,33.4,29.64,ESE,112,0.0,0.0,87,0.05,,---,0.15,VWS V14.01,2013-04-06 19:08:00,
2013-04-06 14:13:00,37.0,33.5,29.63,ESE,112,0.0,2.0,87,0.04,,---,0.15,VWS V14.01,2013-04-06 19:13:00,
2013-04-06 14:18:00,36.9,33.4,29.63,ESE,112,0.0,0.0,87,0.04,,---,0.15,VWS V14.01,2013-04-06 19:18:00,
2013-04-06 14:23:00,36.9,33.7,29.63,ESE,111,0.0,0.0,88,0.03,,---,0.15,VWS V14.01,2013-04-06 19:23:00,
2013-04-06 14:28:00,36.9,33.7,29.63,ESE,111,0.0,0.0,88,0.04,,---,0.16,VWS V14.01,2013-04-06 19:28:00,
2013-04-06 14:33:00,36.9,33.7,29.63,ESE,111,0.0,0.0,88,0.03,,---,0.16,VWS V14.01,2013-04-06 19:33:00,
2013-04-06 14:38:00,36.9,33.7,29.62,ESE,112,0.0,0.0,88,0.03,,---,0.16,VWS V14.01,2013-04-06 19:38:00,
2013-04-06 14:43:00,36.9,33.7,29.62,ESE,112,0.0,0.0,88,0.02,,---,0.16,VWS V14.01,2013-04-06 19:43:00,
2013-04-06 14:48:00,36.7,33.5,29.62,ESE,111,0.0,0.0,88,0.02,,---,0.16,VWS V14.01,2013-04-06 19:48:00,
2013-04-06 14:53:00,36.6,33.7,29.62,ESE,112,0.0,0.0,89,0.02,,---,0.16,VWS V14.01,2013-04-06 19:53:00,
2013-04-06 14:58:00,36.4,33.5,29.62,ESE,111,0.0,0.0,89,0.02,,---,0.16,VWS V14.01,2013-04-06 19:58:00,
2013-04-06 15:03:00,36.4,33.8,29.61,ESE,112,0.0,0.0,90,0.02,,---,0.16,VWS V14.01,2013-04-06 20:03:00,
2013-04-06 15:13:00,36.2,33.6,29.61,ESE,112,0.0,0.0,90,0.02,,---,0.17,VWS V14.01,2013-04-06 20:13:00,
2013-04-06 15:18:00,36.0,33.4,29.61,ESE,112,0.0,0.0,90,0.02,,---,0.17,VWS V14.01,2013-04-06 20:18:00,
2013-04-06 15:28:00,35.8,33.4,29.61,ESE,112,0.0,0.0,91,0.02,,---,0.17,VWS V14.01,2013-04-06 20:28:00,
2013-04-06 15:33:00,35.7,33.3,29.60,ESE,112,0.0,0.0,91,0.01,,---,0.17,VWS V14.01,2013-04-06 20:33:00,
2013-04-06 15:38:00,35.5,33.4,29.60,ESE,111,0.0,0.0,92,0.01,,---,0.17,VWS V14.01,2013-04-06 20:38:00,
2013-04-06 15:43:00,35.3,33.2,29.60,ESE,111,0.0,0.0,92,0.01,,---,0.17,VWS V14.01,2013-04-06 20:43:00,
2013-04-06 15:48:00,35.1,33.0,29.60,ESE,112,0.0,0.0,92,0.02,,---,0.18,VWS V14.01,2013-04-06 20:48:00,
2013-04-06 15:53:00,35.0,32.9,29.60,ESE,112,0.0,0.0,92,0.02,,---,0.18,VWS V14.01,2013-04-06 20:53:00,
2013-04-06 15:58:00,34.9,32.8,29.59,ESE,111,0.0,0.0,92,0.02,,---,0.18,VWS V14.01,2013-04-06 20:58:00,
2013-04-06 16:03:00,34.8,32.7,29.58,ESE,112,0.0,0.0,92,0.02,,---,0.18,VWS V14.01,2013-04-06 21:03:00,
2013-04-06 16:13:00,34.4,32.3,29.59,ESE,112,0.0,0.0,92,0.01,,---,0.18,VWS V14.01,2013-04-06 21:13:00,
2013-04-06 16:23:00,34.4,32.6,29.59,ESE,111,0.0,2.0,93,0.01,,---,0.18,VWS V14.01,2013-04-06 21:23:00,
2013-04-06 16:28:00,34.2,32.4,29.59,ESE,112,2.0,2.0,93,0.01,,---,0.18,VWS V14.01,2013-04-06 21:28:00,
2013-04-06 16:33:00,33.9,32.1,29.59,ESE,112,0.0,3.0,93,0.01,,---,0.18,VWS V14.01,2013-04-06 21:33:00,
2013-04-06 16:43:00,33.4,31.6,29.59,ESE,111,0.0,2.0,93,0.01,,---,0.18,VWS V14.01,2013-04-06 21:43:00,
2013-04-06 16:48:00,33.2,31.4,29.59,ESE,112,0.0,0.0,93,0.01,,---,0.18,VWS V14.01,2013-04-06 21:48:00,
2013-04-06 16:53:00,33.0,31.2,29.59,ESE,112,0.0,0.0,93,0.00,,---,0.18,VWS V14.01,2013-04-06 21:53:00,
2013-04-06 16:58:00,32.8,31.0,29.60,ESE,111,1.0,1.0,93,0.00,,---,0.18,VWS V14.01,2013-04-06 21:58:00,
2013-04-06 17:03:00,32.7,30.9,29.60,ESE,112,0.0,2.0,93,0.00,,---,0.18,VWS V14.01,2013-04-06 22:03:00,
2013-04-06 17:08:00,32.6,30.8,29.60,ESE,112,0.0,2.0,93,0.00,,---,0.18,VWS V14.01,2013-04-06 22:08:00,
2013-04-06 17:13:00,32.5,31.0,29.60,ESE,111,0.0,0.0,94,0.00,,---,0.18,VWS V14.01,2013-04-06 22:13:00,
2013-04-06 17:18:00,32.5,31.0,29.60,ESE,112,0.0,1.0,94,0.00,,---,0.18,VWS V14.01,2013-04-06 22:18:00,
2013-04-06 17:23:00,32.4,30.9,29.61,ESE,112,0.0,0.0,94,0.00,,---,0.18,VWS V14.01,2013-04-06 22:23:00,
2013-04-06 17:33:00,32.4,30.9,29.61,ESE,112,0.0,0.0,94,0.00,,---,0.18,VWS V14.01,2013-04-06 22:33:00,
2013-04-06 17:43:00,32.4,30.9,29.61,ESE,112,0.0,2.0,94,0.00,,---,0.18,VWS V14.01,2013-04-06 22:43:00,
2013-04-06 17:53:00,32.4,30.9,29.61,ESE,111,0.0,0.0,94,0.00,,---,0.18,VWS V14.01,2013-04-06 22:53:00,
2013-04-06 17:58:00,32.4,30.9,29.61,ESE,112,0.0,0.0,94,0.00,,---,0.18,VWS V14.01,2013-04-06 22:58:00,
2013-04-06 18:03:00,32.4,30.9,29.61,ESE,112,0.0,0.0,94,0.00,,---,0.18,VWS V14.01,2013-04-06 23:03:00,
2013-04-06 18:08:00,32.3,30.8,29.61,ESE,112,0.0,0.0,94,0.00,,---,0.18,VWS V14.01,2013-04-06 23:08:00,
2013-04-06 18:18:00,32.2,30.7,29.61,ESE,112,0.0,0.0,94,0.00,,---,0.18,VWS V14.01,2013-04-06 23:18:00,
2013-04-06 18:23:00,32.2,30.7,29.61,ESE,112,0.0,0.0,94,0.00,,---,0.18,VWS V14.01,2013-04-06 23:23:00,
2013-04-06 18:38:00,32.0,30.5,29.61,ESE,112,0.0,0.0,94,0.00,,---,0.18,VWS V14.01,2013-04-06 23:38:00,
2013-04-06 18:43:00,32.0,30.5,29.61,ESE,112,0.0,0.0,94,0.00,,---,0.18,VWS V14.01,2013-04-06 23:43:00,
2013-04-06 18:48:00,31.9,30.4,29.61,ESE,111,0.0,0.0,94,0.00,,---,0.18,VWS V14.01,2013-04-06 23:48:00,
2013-04-06 18:53:00,31.8,30.3,29.61,ESE,112,0.0,0.0,94,0.00,,---,0.18,VWS V14.01,2013-04-06 23:53:00,
2013-04-06 19:03:00,31.7,30.2,29.61,ESE,112,0.0,0.0,94,0.00,,---,0.18,VWS V14.01,2013-04-07 00:03:00,
2013-04-06 19:08:00,31.6,30.1,29.61,ESE,111,0.0,0.0,94,0.00,,---,0.18,VWS V14.01,2013-04-07 00:08:00,
2013-04-06 19:13:00,31.6,30.1,29.61,ESE,112,0.0,0.0,94,0.00,,---,0.18,VWS V14.01,2013-04-07 00:13:00,
2013-04-06 19:18:00,31.5,30.0,29.61,ESE,112,0.0,0.0,94,0.00,,---,0.18,VWS V14.01,2013-04-07 00:18:00,
2013-04-06 19:23:00,31.5,30.2,29.61,ESE,111,0.0,0.0,95,0.00,,---,0.18,VWS V14.01,2013-04-07 00:23:00,
2013-04-06 19:33:00,31.5,30.2,29.61,ESE,112,0.0,0.0,95,0.00,,---,0.18,VWS V14.01,2013-04-07 00:33:00,
2013-04-06 19:38:00,31.4,30.1,29.61,ESE,111,0.0,0.0,95,0.00,,---,0.18,VWS V14.01,2013-04-07 00:38:00,
2013-04-06 19:43:00,31.4,30.1,29.61,ESE,112,0.0,0.0,95,0.00,,---,0.18,VWS V14.01,2013-04-07 00:43:00,
2013-04-06 19:48:00,31.4,30.1,29.61,ESE,112,0.0,0.0,95,0.00,,---,0.18,VWS V14.01,2013-04-07 00:48:00,
2013-04-06 19:53:00,31.3,30.0,29.61,ESE,112,0.0,0.0,95,0.00,,---,0.18,VWS V14.01,2013-04-07 00:53:00,
2013-04-06 19:58:00,31.3,30.0,29.61,ESE,112,0.0,0.0,95,0.00,,---,0.18,VWS V14.01,2013-04-07 00:58:00,
2013-04-06 20:03:00,31.2,29.9,29.61,ESE,111,0.0,0.0,95,0.00,,---,0.18,VWS V14.01,2013-04-07 01:03:00,
2013-04-06 20:13:00,31.1,29.8,29.61,ESE,112,0.0,0.0,95,0.00,,---,0.18,VWS V14.01,2013-04-07 01:13:00,
2013-04-06 20:18:00,31.1,29.8,29.61,ESE,112,0.0,0.0,95,0.00,,---,0.18,VWS V14.01,2013-04-07 01:18:00,
2013-04-06 20:23:00,31.0,29.7,29.62,ESE,111,0.0,0.0,95,0.00,,---,0.18,VWS V14.01,2013-04-07 01:23:00,
2013-04-06 20:28:00,31.0,29.7,29.61,ESE,112,0.0,0.0,95,0.00,,---,0.18,VWS V14.01,2013-04-07 01:28:00,
2013-04-06 20:33:00,31.0,29.7,29.61,ESE,112,0.0,0.0,95,0.00,,---,0.18,VWS V14.01,2013-04-07 01:33:00,
2013-04-06 20:38:00,31.0,29.7,29.61,ESE,111,0.0,0.0,95,0.00,,---,0.18,VWS V14.01,2013-04-07 01:38:00,
2013-04-06 20:43:00,31.0,29.7,29.62,ESE,111,0.0,0.0,95,0.00,,---,0.18,VWS V14.01,2013-04-07 01:43:00,
2013-04-06 20:53:00,30.9,29.6,29.62,ESE,113,0.0,0.0,95,0.00,,---,0.18,VWS V14.01,2013-04-07 01:53:00,
2013-04-06 20:58:00,30.9,29.6,29.62,ESE,113,0.0,0.0,95,0.00,,---,0.18,VWS V14.01,2013-04-07 01:58:00,
2013-04-06 21:03:00,30.9,29.6,29.63,ESE,113,0.0,0.0,95,0.00,,---,0.18,VWS V14.01,2013-04-07 02:03:00,
2013-04-06 21:08:00,30.8,29.5,29.63,NW,309,0.0,0.0,95,0.00,,---,0.18,VWS V14.01,2013-04-07 02:08:00,
2013-04-06 21:13:00,30.8,29.5,29.63,NW,309,0.0,0.0,95,0.00,,---,0.18,VWS V14.01,2013-04-07 02:13:00,
2013-04-06 21:18:00,30.9,29.6,29.63,NW,309,0.0,0.0,95,0.00,,---,0.18,VWS V14.01,2013-04-07 02:18:00,
2013-04-06 21:28:00,30.9,29.6,29.63,NNW,327,0.0,0.0,95,0.00,,---,0.18,VWS V14.01,2013-04-07 02:28:00,
2013-04-06 21:33:00,30.9,29.6,29.63,NNW,327,0.0,0.0,95,0.00,,---,0.18,VWS V14.01,2013-04-07 02:33:00,
2013-04-06 21:38:00,31.0,29.7,29.63,NW,326,0.0,0.0,95,0.00,,---,0.18,VWS V14.01,2013-04-07 02:38:00,
2013-04-06 21:48:00,31.0,29.7,29.63,NNW,327,0.0,0.0,95,0.00,,---,0.18,VWS V14.01,2013-04-07 02:48:00,
2013-04-06 21:58:00,31.1,29.8,29.64,NNW,327,0.0,0.0,95,0.00,,---,0.18,VWS V14.01,2013-04-07 02:58:00,
2013-04-06 22:03:00,31.2,29.9,29.64,NNW,327,0.0,0.0,95,0.00,,---,0.18,VWS V14.01,2013-04-07 03:03:00,
2013-04-06 22:08:00,31.3,30.0,29.64,NNW,327,0.0,0.0,95,0.00,,---,0.18,VWS V14.01,2013-04-07 03:08:00,
2013-04-06 22:13:00,31.3,30.0,29.64,NNW,327,0.0,0.0,95,0.00,,---,0.18,VWS V14.01,2013-04-07 03:13:00,
2013-04-06 22:18:00,31.3,30.0,29.64,NNW,328,0.0,0.0,95,0.00,,---,0.18,VWS V14.01,2013-04-07 03:18:00,
2013-04-06 22:23:00,31.3,30.0,29.64,NW,308,0.0,0.0,95,0.00,,---,0.18,VWS V14.01,2013-04-07 03:23:00,
2013-04-06 22:28:00,31.2,29.9,29.64,NW,307,0.0,0.0,95,0.00,,---,0.18,VWS V14.01,2013-04-07 03:28:00,
2013-04-06 22:33:00,31.2,29.9,29.64,NNW,331,0.0,0.0,95,0.00,,---,0.18,VWS V14.01,2013-04-07 03:33:00,
2013-04-06 22:38:00,31.2,29.9,29.64,SW,225,0.0,0.0,95,0.00,,---,0.18,VWS V14.01,2013-04-07 03:38:00,
2013-04-06 22:43:00,31.2,29.9,29.64,NNW,344,0.0,0.0,95,0.00,,---,0.18,VWS V14.01,2013-04-07 03:43:00,
2013-04-06 22:48:00,31.1,29.8,29.65,WNW,292,0.0,0.0,95,0.00,,---,0.18,VWS V14.01,2013-04-07 03:48:00,
2013-04-06 22:58:00,31.0,29.7,29.65,West,269,0.0,0.0,95,0.00,,---,0.18,VWS V14.01,2013-04-07 03:58:00,
2013-04-06 23:03:00,30.9,29.6,29.65,WNW,297,0.0,0.0,95,0.00,,---,0.18,VWS V14.01,2013-04-07 04:03:00,
2013-04-06 23:08:00,30.9,29.6,29.65,WNW,296,0.0,0.0,95,0.00,,---,0.18,VWS V14.01,2013-04-07 04:08:00,
2013-04-06 23:13:00,30.8,29.5,29.65,SSE,164,0.0,0.0,95,0.00,,---,0.18,VWS V14.01,2013-04-07 04:13:00,
2013-04-06 23:18:00,30.8,29.5,29.65,WNW,286,0.0,0.0,95,0.00,,---,0.18,VWS V14.01,2013-04-07 04:18:00,
2013-04-06 23:23:00,30.8,29.5,29.65,West,259,0.0,0.0,95,0.00,,---,0.18,VWS V14.01,2013-04-07 04:23:00,
2013-04-06 23:28:00,30.7,29.4,29.65,West,260,0.0,0.0,95,0.00,,---,0.18,VWS V14.01,2013-04-07 04:28:00,
2013-04-06 23:33:00,30.7,29.7,29.66,NW,312,0.0,0.0,96,0.00,,---,0.18,VWS V14.01,2013-04-07 04:33:00,
2013-04-06 23:38:00,30.7,29.4,29.66,NNW,333,0.0,0.0,95,0.00,,---,0.18,VWS V14.01,2013-04-07 04:38:00,
2013-04-06 23:43:00,30.6,29.3,29.66,NW,304,0.0,0.0,95,0.00,,---,0.18,VWS V14.01,2013-04-07 04:43:00,
2013-04-06 23:48:00,30.6,29.3,29.66,WNW,303,0.0,0.0,95,0.00,,---,0.18,VWS V14.01,2013-04-07 04:48:00,
2013-04-06 23:53:00,30.6,29.3,29.66,WNW,303,0.0,0.0,95,0.00,,---,0.18,VWS V14.01,2013-04-07 04:53:00,
2013-04-06 23:58:00,30.5,29.2,29.66,NW,314,0.0,0.0,95,0.00,,---,0.18,VWS V14.01,2013-04-07 04:58:00,